Dobrodošli na spletni strani vremenske postaje Senovo. Vse informacije so informativnega značaja, saj vremenska postaja ni del državne mreže meteoroloških postaj. OBVESTILO: Letni količini padavin navedeni na spletni strani je potrebno prišteti 98,1 mm, zaradi izgube podatkov.


Posebna pozornost v zvezi z vremenskimi dogajanji ni potrebna.    Posebna pozornost v zvezi z vremenskimi dogajanji ni potrebna.

Pogled proti Armezu več informacij Pogled proti Armezu


Lisca več informacij Lisca


Radar strel več informacij blitzortung!


Radar padavin več informacij rain snow radar


Obiščite še:

Template documentation
and downloads

And another site



Weather Underground, zgodovina - Tekstovno

Dnevni povzetek za Avgust 12, 2017 Enote:  Angleško    Metrično   Obe
« Predhodni Dan
Naslednji Dan »
Dnevni Tedenski Mesečni Letni Po meri
  Višja: Nižja: Povprečje:
Temperatura: 71.2 °F 57.4 °F 63.3 °F
Točka rosišča: 63 °F 53.2 °F 58.8 °F
Vlažnost: 94 % 67 % 86 %
Hitrost vetra: 4.6 mph 0 mph 1.1 mph
Sunki vetra: 11.9 mph - -
Veter:- - South
Zračni tlak: 30.1 in 29.9 in -
Padavine: 0 in    
Historical Graphs
 
 
Tabelarni podarki za Avgust 12, 2017
Čas Temperatura Točka rosišča Zračni tlak Veter Hitrost vetra Sunki vetra Vlažnost Intenziteta padavin (urna)
00:03 58.5 °F 53.6 °F 29.9 in WNW 0.3 mph 2 mph 84 % 0 in
00:08 58.3 °F 53.4 °F 29.9 in WNW 0.3 mph 2 mph 84 % 0 in
00:13 58.1 °F 53.6 °F 29.9 in Calm   0.9 mph 85 % 0 in
00:18 58.1 °F 53.6 °F 29.9 in Calm   0.9 mph 85 % 0 in
00:19 57.9 °F 53.8 °F 29.9 in Calm   0.9 mph 86 % 0 in
00:24 57.9 °F 53.4 °F 29.9 in Calm   0.9 mph 85 % 0 in
00:29 57.9 °F 53.4 °F 29.9 in Calm     85 % 0 in
00:34 57.7 °F 53.2 °F 29.9 in Calm     85 % 0 in
00:39 57.7 °F 53.2 °F 29.9 in Calm     85 % 0 in
00:44 57.6 °F 53.4 °F 29.9 in Calm     86 % 0 in
00:49 57.6 °F 53.4 °F 29.9 in Calm     86 % 0 in
00:54 57.4 °F 53.2 °F 29.9 in Calm   0.9 mph 86 % 0 in
00:59 57.4 °F 53.2 °F 29.9 in Calm   0.9 mph 86 % 0 in
01:04 57.4 °F 53.4 °F 29.9 in Calm     87 % 0 in
01:09 57.4 °F 54 °F 29.9 in Calm     88 % 0 in
01:14 57.4 °F 54 °F 29.9 in Calm     88 % 0 in
01:19 57.6 °F 54 °F 29.9 in Calm     88 % 0 in
01:24 57.6 °F 54 °F 29.9 in Calm     88 % 0 in
01:29 57.7 °F 54.1 °F 29.9 in Calm     88 % 0 in
01:34 57.9 °F 54.7 °F 29.9 in Calm     89 % 0 in
01:39 57.9 °F 54.7 °F 29.9 in SSE 0.6 mph 2.2 mph 89 % 0 in
01:44 58.1 °F 54.9 °F 29.9 in SSE 0.9 mph 2.2 mph 89 % 0 in
01:49 58.3 °F 55 °F 29.9 in SSE 0.3 mph 2 mph 89 % 0 in
01:54 58.3 °F 55 °F 29.9 in South 0.1 mph 2.5 mph 89 % 0 in
01:59 58.5 °F 55.2 °F 29.9 in SSW 0.4 mph 2.5 mph 89 % 0 in
02:04 58.6 °F 55.8 °F 29.9 in NW 0.3 mph 2.2 mph 90 % 0 in
02:09 58.6 °F 55.4 °F 29.9 in NNW 0.1 mph 1.3 mph 89 % 0 in
02:14 58.8 °F 55.6 °F 29.9 in Calm     89 % 0 in
02:19 58.8 °F 55.9 °F 29.9 in Calm     90 % 0 in
02:24 59 °F 55.8 °F 29.9 in Calm     89 % 0 in
02:29 59.2 °F 55.9 °F 29.9 in West 0.1 mph 1.3 mph 89 % 0 in
02:34 59.2 °F 55.9 °F 29.9 in West 0.1 mph 1.3 mph 89 % 0 in
02:37 59.2 °F 55.9 °F 29.9 in NNW 0.1 mph 1.6 mph 89 % 0 in
02:42 59.4 °F 56.1 °F 29.9 in NNW 0.2 mph 1.6 mph 89 % 0 in
02:47 59.4 °F 56.1 °F 29.9 in North 0.1 mph   89 % 0 in
02:52 59.5 °F 56.3 °F 29.9 in Calm     89 % 0 in
02:57 59.5 °F 56.3 °F 29.9 in Calm     89 % 0 in
03:03 59.7 °F 56.5 °F 29.9 in Calm     89 % 0 in
03:08 59.7 °F 56.5 °F 29.9 in Calm     89 % 0 in
03:13 59.7 °F 56.5 °F 29.9 in NNW 0.6 mph 2.5 mph 89 % 0 in
03:18 59.9 °F 56.7 °F 29.9 in NNW 0.6 mph 2.5 mph 89 % 0 in
03:23 59.9 °F 56.7 °F 29.9 in ENE 0.1 mph 1.6 mph 89 % 0 in
03:28 60.1 °F 56.8 °F 29.9 in ENE 0.1 mph 1.6 mph 89 % 0 in
03:33 60.1 °F 56.8 °F 29.9 in Calm     89 % 0 in
03:38 60.1 °F 56.8 °F 29.9 in Calm     89 % 0 in
03:43 60.1 °F 56.8 °F 29.9 in Calm     89 % 0 in
03:48 60.1 °F 57 °F 29.9 in Calm     90 % 0 in
03:53 60.1 °F 57 °F 29.9 in ENE 0.1 mph 3.4 mph 90 % 0 in
03:58 60.3 °F 57 °F 29.9 in South 0.6 mph 3.4 mph 89 % 0 in
04:03 60.4 °F 57.2 °F 29.9 in WSW 1 mph 2.7 mph 89 % 0 in
04:08 60.6 °F 57.4 °F 29.9 in South 0.9 mph 3.1 mph 89 % 0 in
04:13 60.6 °F 57.4 °F 29.9 in SSE 0.9 mph 3.1 mph 89 % 0 in
04:18 60.6 °F 57.4 °F 29.9 in NNW 1.3 mph 3.8 mph 89 % 0 in
04:23 60.8 °F 57.6 °F 29.9 in NNW 1.8 mph 3.8 mph 89 % 0 in
04:28 60.8 °F 57.6 °F 29.9 in WNW 1.6 mph 3.6 mph 89 % 0 in
04:33 60.8 °F 57.6 °F 29.9 in WSW 1 mph 2.9 mph 89 % 0 in
04:38 60.8 °F 57.6 °F 29.9 in West 0.3 mph 1.6 mph 89 % 0 in
04:43 60.8 °F 57.6 °F 29.9 in Calm   1.1 mph 89 % 0 in
04:48 60.8 °F 57.6 °F 29.9 in WSW 0.6 mph 3.4 mph 89 % 0 in
04:53 60.8 °F 57.6 °F 29.9 in WSW 1 mph 3.4 mph 89 % 0 in
04:58 60.6 °F 57.4 °F 29.9 in WSW 0.4 mph 3.4 mph 89 % 0 in
05:03 60.6 °F 57.4 °F 29.9 in SSW 0.5 mph 3.4 mph 89 % 0 in
05:08 60.8 °F 57.2 °F 29.9 in South 1 mph 3.4 mph 88 % 0 in
05:13 61 °F 57 °F 29.9 in SE 1.1 mph 6.3 mph 87 % 0 in
05:18 61.2 °F 56.8 °F 29.9 in ESE 3 mph 7.2 mph 86 % 0 in
05:23 61.7 °F 57 °F 29.9 in ESE 4.4 mph 7.2 mph 85 % 0 in
05:28 62.1 °F 56.8 °F 29.9 in ESE 3.6 mph 6 mph 83 % 0 in
05:33 62.2 °F 57 °F 29.9 in ESE 2.3 mph 4.3 mph 83 % 0 in
05:38 62.2 °F 56.7 °F 29.9 in ESE 1.1 mph 3.8 mph 82 % 0 in
05:43 62.4 °F 56.8 °F 29.9 in SSE 1.6 mph 6.3 mph 82 % 0 in
05:48 62.6 °F 56.7 °F 29.9 in SE 2.3 mph 6.3 mph 81 % 0 in
05:53 62.6 °F 56.7 °F 29.9 in SE 3 mph 11.9 mph 81 % 0 in
05:58 63 °F 56.7 °F 29.9 in SE 4.6 mph 11.9 mph 80 % 0 in
06:03 63.1 °F 56.8 °F 29.9 in SSE 4.4 mph 10.5 mph 80 % 0 in
06:08 63.1 °F 56.8 °F 29.9 in SSE 4 mph 6 mph 80 % 0 in
06:13 63.1 °F 56.5 °F 29.9 in South 4.6 mph 7.2 mph 79 % 0 in
06:18 63.1 °F 56.5 °F 30 in South 3.7 mph 7.2 mph 79 % 0 in
06:23 63.1 °F 56.8 °F 30 in ESE 2 mph 4.3 mph 80 % 0 in
06:28 63 °F 56.7 °F 30 in East 1.7 mph 4 mph 80 % 0 in
06:33 62.8 °F 56.8 °F 30 in East 1.4 mph 4 mph 81 % 0 in
06:38 62.8 °F 57.2 °F 30 in ESE 1.9 mph 4.3 mph 82 % 0.01 in
06:43 62.8 °F 56.8 °F 30 in ESE 1.9 mph 4.3 mph 81 % 0.01 in
06:48 62.6 °F 57.4 °F 29.9 in East 0.6 mph 2.7 mph 83 % 0.01 in
06:53 62.2 °F 57 °F 29.9 in Calm     83 % 0.01 in
06:58 62.1 °F 57.2 °F 29.9 in Calm     84 % 0.01 in
07:03 61.9 °F 57.4 °F 30 in Calm     85 % 0.02 in
07:08 61.7 °F 57.6 °F 30 in Calm   2 mph 86 % 0.02 in
07:13 61.5 °F 57.4 °F 30 in South 1 mph 2.7 mph 86 % 0.02 in
07:18 61.3 °F 57.7 °F 30 in South 1.1 mph 2.7 mph 88 % 0.02 in
07:20 61.3 °F 57.7 °F 30 in South 0.7 mph 2.7 mph 88 % 0.02 in
07:25 61.3 °F 57.7 °F 30 in North 0.3 mph 2.7 mph 88 % 0.02 in
07:30 61.2 °F 57.9 °F 30 in North 0.9 mph 2.9 mph 89 % 0.02 in
07:35 61.2 °F 58.3 °F 29.9 in North 0.7 mph 2.9 mph 90 % 0.02 in
07:40 61.2 °F 58.3 °F 29.9 in ESE 0.8 mph 4.9 mph 90 % 0.02 in
07:45 61.3 °F 58.5 °F 29.9 in SE 1.9 mph 4.9 mph 90 % 0.02 in
07:50 61.3 °F 58.5 °F 29.9 in South 1.6 mph 3.6 mph 90 % 0.02 in
07:55 61.3 °F 58.5 °F 29.9 in SW 1.6 mph 3.8 mph 90 % 0.01 in
08:00 61.3 °F 58.6 °F 29.9 in WSW 1 mph 3.8 mph 91 % 0.01 in
08:05 61.5 °F 58.8 °F 30 in SW 0.9 mph 3.8 mph 91 % 0.01 in
08:10 61.5 °F 58.8 °F 30 in SW 2.8 mph 5.8 mph 91 % 0 in
08:15 61.3 °F 58.6 °F 30 in SW 3.8 mph 5.8 mph 91 % 0 in
08:20 61.3 °F 58.6 °F 30 in WSW 3.3 mph 5.8 mph 91 % 0 in
08:25 61.3 °F 58.6 °F 30 in West 1.8 mph 4.5 mph 91 % 0.01 in
08:30 61.2 °F 58.5 °F 30 in West 1 mph 2.9 mph 91 % 0.01 in
08:35 61.2 °F 58.5 °F 30 in NW 0.6 mph 2.9 mph 91 % 0.03 in
08:40 61.2 °F 58.5 °F 30 in Calm     91 % 0.03 in
08:45 61.2 °F 58.5 °F 30 in Calm     91 % 0.04 in
08:50 61.2 °F 58.5 °F 30 in Calm   1.1 mph 91 % 0.04 in
08:55 61.2 °F 58.5 °F 30 in ESE 0.1 mph 2.2 mph 91 % 0.05 in
09:00 61.2 °F 58.8 °F 30 in East 0.3 mph 2.2 mph 92 % 0.05 in
09:05 61.2 °F 58.8 °F 30 in ENE 0.2 mph 1.6 mph 92 % 0.05 in
09:10 61.2 °F 58.8 °F 30 in ENE 0.5 mph 2.5 mph 92 % 0.06 in
09:15 61.2 °F 58.8 °F 30 in ENE 1.2 mph 5.4 mph 92 % 0.07 in
09:20 61.2 °F 58.8 °F 30 in East 1.7 mph 5.4 mph 92 % 0.07 in
09:21 61.2 °F 58.8 °F 30 in ESE 1.8 mph 5.4 mph 92 % 0.07 in
09:26 61.2 °F 58.8 °F 30 in West 2.8 mph 4.9 mph 92 % 0.07 in
09:31 61.3 °F 59.4 °F 30 in WNW 2.2 mph 4.9 mph 93 % 0.06 in
09:36 61.3 °F 59.4 °F 30 in West 1.5 mph 3.6 mph 93 % 0.05 in
09:41 61.3 °F 59.4 °F 30 in SW 2.7 mph 4.9 mph 93 % 0.04 in
09:46 61.3 °F 59.4 °F 30 in SSW 3.1 mph 4.9 mph 93 % 0.04 in
09:51 61.3 °F 59.4 °F 30 in South 1.4 mph 3.8 mph 93 % 0.05 in
09:56 61.3 °F 59.4 °F 30 in South 1 mph 3.8 mph 93 % 0.05 in
10:01 61.3 °F 59.4 °F 30 in SSW 2.4 mph 4.9 mph 93 % 0.05 in
10:06 61.2 °F 59.2 °F 30 in SSW 2.8 mph 4.9 mph 93 % 0.06 in
10:11 61.2 °F 59.2 °F 30 in South 2.2 mph 4 mph 93 % 0.05 in
10:16 61.2 °F 59.2 °F 30 in South 2.1 mph 3.6 mph 93 % 0.05 in
10:21 61.2 °F 59.2 °F 30 in SSW 1.8 mph 3.6 mph 93 % 0.05 in
10:26 61 °F 58.8 °F 30 in SSW 1 mph 3.1 mph 93 % 0.07 in
10:31 61 °F 58.8 °F 30 in North 0.1 mph   93 % 0.07 in
10:36 61 °F 58.8 °F 30 in NE 0.3 mph 2.5 mph 93 % 0.08 in
10:41 61 °F 58.8 °F 30 in NE 0.3 mph 2.5 mph 93 % 0.09 in
10:46 61.2 °F 59.2 °F 30 in Calm     93 % 0.1 in
10:51 61.2 °F 59.2 °F 30 in Calm     93 % 0.11 in
10:56 61.3 °F 59.4 °F 30 in Calm   1.3 mph 93 % 0.11 in
11:01 61.3 °F 59.4 °F 30 in Calm   1.3 mph 93 % 0.11 in
11:06 61.3 °F 59.4 °F 30 in SE 0.6 mph 2.5 mph 93 % 0.1 in
11:11 61.5 °F 59.5 °F 30 in SE 1.4 mph 2.7 mph 93 % 0.1 in
11:16 61.5 °F 59.5 °F 30 in SE 1.1 mph 2.7 mph 93 % 0.1 in
11:21 61.3 °F 59.4 °F 30 in SSE 0.3 mph 2.5 mph 93 % 0.1 in
11:26 61.3 °F 59.4 °F 30 in SSE 0.2 mph 2.2 mph 93 % 0.09 in
11:31 61.3 °F 59.4 °F 30 in South 1.1 mph 2.7 mph 93 % 0.08 in
11:36 61.3 °F 59.4 °F 30 in SW 2 mph 4 mph 93 % 0.08 in
11:41 61.3 °F 59.4 °F 30 in WSW 2.8 mph 4 mph 93 % 0.07 in
11:46 61.2 °F 59.2 °F 30 in WSW 2.5 mph 4 mph 93 % 0.07 in
11:51 61.2 °F 59.2 °F 30.1 in West 1 mph 3.6 mph 93 % 0.07 in
11:56 61.2 °F 59.2 °F 30.1 in West 0.3 mph 1.6 mph 93 % 0.08 in
12:01 61.2 °F 59.2 °F 30.1 in West 0.3 mph 1.6 mph 93 % 0.09 in
12:06 61.2 °F 59.2 °F 30 in NE 0.2 mph 2 mph 93 % 0.09 in
12:11 61.2 °F 59.4 °F 30 in NE 0.2 mph 2 mph 94 % 0.1 in
12:12 61.2 °F 59.4 °F 30 in NE 0.2 mph 2 mph 94 % 0.1 in
12:17 61.2 °F 59.4 °F 30 in ENE 0.2 mph 2 mph 94 % 0.11 in
12:22 61.2 °F 59.4 °F 30 in East 0.3 mph 2.5 mph 94 % 0.12 in
12:27 61.3 °F 59.5 °F 30 in ESE 1 mph 3.6 mph 94 % 0.12 in
12:32 61.3 °F 59.5 °F 30 in SE 1.3 mph 3.6 mph 94 % 0.12 in
12:37 61.5 °F 59.7 °F 30 in ESE 0.4 mph 2.5 mph 94 % 0.13 in
12:42 61.5 °F 59.7 °F 30 in NE 0.3 mph 2.5 mph 94 % 0.12 in
12:47 61.7 °F 60.1 °F 30 in ENE 0.5 mph 2.5 mph 94 % 0.12 in
12:52 61.9 °F 60.1 °F 30 in ENE 0.5 mph 2.7 mph 94 % 0.1 in
12:57 62.1 °F 60.3 °F 30 in ENE 0.4 mph 2.7 mph 94 % 0.09 in
13:02 62.2 °F 60.4 °F 30 in East 0.1 mph 1.1 mph 94 % 0.07 in
13:07 62.4 °F 60.6 °F 30 in East 0.4 mph 2.7 mph 94 % 0.07 in
13:12 62.6 °F 60.4 °F 30 in East 0.6 mph 2.7 mph 93 % 0.06 in
13:17 63 °F 61 °F 30 in East 0.2 mph 2 mph 93 % 0.05 in
13:22 63.1 °F 61.2 °F 30 in East 0.2 mph 3.1 mph 93 % 0.04 in
13:27 63.7 °F 61.5 °F 30 in East 1.1 mph 3.4 mph 93 % 0.03 in
13:32 64 °F 61.7 °F 30 in ESE 1.3 mph 3.4 mph 92 % 0.02 in
13:37 64.4 °F 62.1 °F 30 in South 1.5 mph 3.6 mph 92 % 0.01 in
13:42 64.9 °F 62.2 °F 30 in SSW 2.5 mph 4.3 mph 91 % 0.01 in
13:47 65.3 °F 62.6 °F 30 in South 3 mph 4.7 mph 91 % 0.01 in
13:52 65.5 °F 62.4 °F 30 in SSE 3.2 mph 4.7 mph 90 % 0.01 in
13:57 65.8 °F 62.4 °F 30 in SSE 2.6 mph 4.3 mph 89 % 0.01 in
14:03 66 °F 62.4 °F 30 in SE 2.9 mph 4.7 mph 88 % 0.01 in
14:08 66.2 °F 62.2 °F 30 in SE 2.6 mph 4.7 mph 87 % 0 in
14:13 66.4 °F 62.4 °F 30 in SSE 1.5 mph 3.4 mph 87 % 0 in
14:18 66.6 °F 62.2 °F 30 in SSE 1.4 mph 2.7 mph 86 % 0 in
14:23 66.7 °F 62.4 °F 30 in South 1.4 mph 2.9 mph 86 % 0 in
14:27 66.9 °F 62.6 °F 30 in SSW 2.2 mph 4.3 mph 86 % 0 in
14:33 66.9 °F 62.2 °F 30 in SW 2.9 mph 4.3 mph 85 % 0 in
14:37 67.1 °F 62.4 °F 30 in South 2.6 mph 4.3 mph 85 % 0 in
14:42 67.1 °F 62.4 °F 30 in SSE 2.3 mph 4.3 mph 85 % 0 in
14:43 67.1 °F 62.4 °F 30 in SSE 2.3 mph 4.3 mph 85 % 0 in
14:48 67.3 °F 61.5 °F 30 in SE 2 mph 3.6 mph 82 % 0 in
14:49 67.3 °F 61.9 °F 30 in SE 2.1 mph 3.6 mph 83 % 0 in
14:54 67.3 °F 61.9 °F 30 in SE 1.9 mph 3.8 mph 83 % 0 in
14:59 67.5 °F 62.1 °F 30 in SSW 1.9 mph 3.8 mph 83 % 0 in
15:04 67.6 °F 62.2 °F 30 in SSW 2.3 mph 4 mph 83 % 0 in
15:09 67.8 °F 62.4 °F 30 in SSW 2.5 mph 4.3 mph 83 % 0 in
15:14 68 °F 62.2 °F 30 in SW 2.5 mph 4.3 mph 82 % 0 in
15:19 68.2 °F 62.4 °F 30 in WSW 2.6 mph 4.3 mph 82 % 0 in
15:24 68.2 °F 62.4 °F 30 in SSW 2.7 mph 4.9 mph 82 % 0 in
15:29 68.5 °F 62.8 °F 30 in South 3 mph 6.3 mph 82 % 0 in
15:34 68.7 °F 62.8 °F 30 in South 3 mph 6.3 mph 81 % 0 in
15:39 68.9 °F 62.8 °F 30 in SSE 2.9 mph 4.7 mph 81 % 0 in
15:41 69.1 °F 63 °F 30 in SSE 2.8 mph 4.3 mph 81 % 0 in
15:46 69.4 °F 62.6 °F 30 in SSE 2.8 mph 4 mph 79 % 0 in
15:51 69.6 °F 62.8 °F 30 in South 1.9 mph 3.8 mph 79 % 0 in
15:56 69.6 °F 62.1 °F 30 in SSW 1 mph 2.5 mph 77 % 0 in
16:01 69.6 °F 62.1 °F 30 in South 1.4 mph 3.4 mph 77 % 0 in
16:06 70 °F 62.1 °F 30 in SSE 2.2 mph 6 mph 76 % 0 in
16:11 70.2 °F 61.9 °F 30 in SE 2.7 mph 6 mph 75 % 0 in
16:16 70.3 °F 62.4 °F 30 in SE 3 mph 5.8 mph 76 % 0 in
16:21 70.3 °F 62.1 °F 30 in SSE 3.1 mph 6.5 mph 75 % 0 in
16:26 70.2 °F 60.3 °F 30 in SSW 3.2 mph 6.5 mph 71 % 0 in
16:31 70.2 °F 60.3 °F 30 in SW 2.4 mph 4 mph 71 % 0 in
16:37 70.3 °F 60.1 °F 30 in WSW 1.4 mph 2.7 mph 70 % 0 in
16:42 70.3 °F 60.4 °F 30 in SW 0.9 mph 2.5 mph 71 % 0 in
16:47 70.7 °F 60.8 °F 30 in South 1.8 mph 4.5 mph 71 % 0 in
16:51 70.7 °F 60.8 °F 30 in South 2.3 mph 3.1 mph 71 % 0 in
16:52 70.9 °F 61 °F 30 in South 2.3 mph 3.1 mph 71 % 0 in
16:53 70.9 °F 61 °F 30 in South 2.1 mph 3.6 mph 71 % 0 in
16:54 70.9 °F 61 °F 30 in South 2.2 mph 3.6 mph 71 % 0 in
16:55 70.9 °F 61 °F 30 in SSW 2.4 mph 3.6 mph 71 % 0 in
16:56 70.9 °F 61 °F 30 in SSW 2.5 mph 3.6 mph 71 % 0 in
16:57 70.9 °F 61 °F 30 in South 2.5 mph 3.6 mph 71 % 0 in
16:58 70.9 °F 61 °F 30 in South 2.3 mph 3.6 mph 71 % 0 in
16:59 70.9 °F 61 °F 30 in South 2.4 mph 3.6 mph 71 % 0 in
17:00 70.9 °F 61 °F 30 in SSW 2.4 mph 3.6 mph 71 % 0 in
17:01 70.9 °F 61 °F 30 in SSW 2.3 mph 3.6 mph 71 % 0 in
17:02 70.9 °F 61 °F 30 in SSW 2.3 mph 3.6 mph 71 % 0 in
17:03 70.9 °F 61 °F 30 in SSW 2.5 mph 3.4 mph 71 % 0 in
17:04 70.9 °F 61 °F 30 in SSW 2.5 mph 3.4 mph 71 % 0 in
17:05 70.9 °F 60.6 °F 30 in SSW 2.6 mph 3.4 mph 70 % 0 in
17:06 71.1 °F 60.8 °F 30 in SSW 2.6 mph 3.4 mph 70 % 0 in
17:07 71.1 °F 60.8 °F 30 in SSW 2.6 mph 3.4 mph 70 % 0 in
17:08 71.1 °F 60.8 °F 30 in SSW 2.8 mph 3.4 mph 70 % 0 in
17:09 71.1 °F 60.4 °F 30 in SW 2.7 mph 3.4 mph 69 % 0 in
17:10 71.1 °F 60.4 °F 30 in SW 2.8 mph 3.8 mph 69 % 0 in
17:20 71.2 °F 60.4 °F 30 in SW 2.8 mph 3.8 mph 69 % 0 in
17:25 71.2 °F 60.1 °F 30 in WSW 1.6 mph 3.4 mph 68 % 0 in
17:30 71.2 °F 60.1 °F 30 in SW 1.8 mph 3.1 mph 68 % 0 in
17:35 71.1 °F 60.1 °F 30 in WSW 2 mph 3.1 mph 68 % 0 in
17:40 70.7 °F 60.1 °F 30 in WSW 2.1 mph 3.1 mph 69 % 0 in
17:47 70.3 °F 58.8 °F 30 in SW 0.8 mph 1.6 mph 67 % 0 in
17:52 70 °F 58.8 °F 30 in SSW 1.7 mph 2.7 mph 68 % 0 in
17:57 69.6 °F 59.7 °F 30 in SSW 1 mph 2.7 mph 71 % 0 in
18:02 69.3 °F 59.5 °F 30 in SSW 0.2 mph 1.3 mph 71 % 0 in
18:07 68.7 °F 59.4 °F 30 in Calm     72 % 0 in
18:12 68.5 °F 59.5 °F 30 in WSW 0.3 mph 2.7 mph 73 % 0 in
18:17 68.2 °F 58.8 °F 30 in SW 1.4 mph 3.1 mph 72 % 0 in
18:22 68 °F 58.3 °F 30 in WSW 2.1 mph 3.6 mph 71 % 0 in
18:27 67.8 °F 58.1 °F 30 in WSW 2.4 mph 4.9 mph 71 % 0 in
18:33 67.6 °F 58.3 °F 30 in WSW 2.8 mph 4.9 mph 72 % 0 in
18:38 67.6 °F 58.6 °F 30 in WSW 2.1 mph 3.8 mph 73 % 0 in
18:43 67.5 °F 59.5 °F 30 in WSW 0.9 mph 2.7 mph 76 % 0 in
18:48 67.5 °F 60.1 °F 30 in WSW 0.4 mph 1.6 mph 77 % 0 in
18:53 67.3 °F 60.3 °F 30 in WNW 0.3 mph 2 mph 78 % 0 in
18:58 67.1 °F 60.4 °F 30 in WNW 0.7 mph 2.7 mph 79 % 0 in
19:03 66.9 °F 60.4 °F 30 in WNW 0.9 mph 2.7 mph 80 % 0 in
19:08 66.9 °F 60.4 °F 30 in West 0.7 mph 2.5 mph 80 % 0 in
19:13 66.7 °F 60.4 °F 30 in SW 0.7 mph 2.5 mph 80 % 0 in
19:18 66.4 °F 60.4 °F 30 in NW 1.1 mph 2.9 mph 81 % 0 in
19:23 66.2 °F 60.3 °F 30 in NNW 0.8 mph 2.9 mph 81 % 0 in
19:28 66 °F 60.4 °F 30 in North 0.1 mph   82 % 0 in
19:33 66 °F 60.4 °F 30 in Calm     82 % 0 in
19:38 65.8 °F 60.4 °F 30 in Calm     83 % 0 in
19:43 65.7 °F 60.4 °F 30 in NW 0.1 mph 1.1 mph 83 % 0 in
19:48 65.7 °F 60.6 °F 30 in NW 0.1 mph 1.1 mph 84 % 0 in
19:53 65.3 °F 60.3 °F 30 in Calm   2.7 mph 84 % 0 in
19:58 65.1 °F 60.4 °F 30 in NNW 0.5 mph 2.7 mph 85 % 0 in
20:03 65.1 °F 60.4 °F 30 in North 0.5 mph 2.2 mph 85 % 0 in
20:08 64.8 °F 60.1 °F 30 in Calm     85 % 0 in
20:09 64.8 °F 60.1 °F 30 in Calm     85 % 0 in
20:14 64.8 °F 60.4 °F 30 in North 0.1 mph 2.7 mph 86 % 0 in
20:19 64.4 °F 60.1 °F 30 in North 0.1 mph 2.7 mph 86 % 0 in
20:24 64.4 °F 60.4 °F 30 in North 0.1 mph 1.6 mph 87 % 0 in
20:29 64.2 °F 60.3 °F 30 in North 0.2 mph 1.6 mph 87 % 0 in
20:34 64.2 °F 60.3 °F 30 in Calm     87 % 0 in
20:39 63.9 °F 60.3 °F 30 in Calm     88 % 0 in
20:44 63.9 °F 60.3 °F 30 in Calm     88 % 0 in
20:49 63.9 °F 60.3 °F 30 in Calm     88 % 0 in
20:54 63.7 °F 60.1 °F 30 in Calm     88 % 0 in
20:59 63.5 °F 59.5 °F 30 in Calm     87 % 0 in
21:04 63.5 °F 59.9 °F 30.1 in Calm   2.5 mph 88 % 0 in
21:09 63.5 °F 59.9 °F 30.1 in NW 0.9 mph 2.9 mph 88 % 0 in
21:14 63.3 °F 59.7 °F 30.1 in NW 0.8 mph 2.9 mph 88 % 0 in
21:19 63.3 °F 59.7 °F 30 in Calm     88 % 0 in
21:24 63.1 °F 59.5 °F 30 in Calm     88 % 0 in
21:29 63.1 °F 59.7 °F 30 in Calm     89 % 0 in
21:34 63 °F 59.7 °F 30 in Calm     89 % 0 in
21:39 63 °F 59.7 °F 30 in Calm   2 mph 89 % 0 in
21:44 62.8 °F 59.5 °F 30 in NNW 0.1 mph 2 mph 89 % 0 in
21:49 62.6 °F 59.4 °F 30 in NE 0.2 mph 2.2 mph 89 % 0 in
21:54 62.4 °F 59.2 °F 30 in NNW 0.8 mph 2.9 mph 89 % 0 in
21:59 62.2 °F 59 °F 30 in NW 0.7 mph 2.9 mph 89 % 0 in
22:04 62.1 °F 58.8 °F 30 in Calm     89 % 0 in
22:09 61.9 °F 58.6 °F 30 in Calm     89 % 0 in
22:14 61.7 °F 58.6 °F 30 in Calm     90 % 0 in
22:19 61.7 °F 58.6 °F 30 in Calm     90 % 0 in
22:24 61.3 °F 58.5 °F 30 in Calm     90 % 0 in
22:29 61.3 °F 58.6 °F 30 in Calm     91 % 0 in
22:34 61.2 °F 58.5 °F 30 in Calm   1.6 mph 91 % 0 in
22:39 61 °F 58.3 °F 30 in NNE 0.2 mph 1.6 mph 91 % 0 in
22:44 61 °F 58.3 °F 30 in North 0.1 mph 1.6 mph 91 % 0 in
22:49 60.8 °F 58.3 °F 30 in Calm     91 % 0 in
22:54 60.8 °F 58.3 °F 30 in Calm     91 % 0 in
22:59 60.6 °F 58.3 °F 30 in Calm     92 % 0 in
23:04 60.6 °F 58.3 °F 30 in North 0.1 mph 1.6 mph 92 % 0 in
23:09 60.6 °F 58.3 °F 30 in North 0.1 mph 1.6 mph 92 % 0 in
23:14 60.6 °F 58.3 °F 30 in Calm     92 % 0 in
23:19 60.6 °F 58.3 °F 30 in Calm     92 % 0 in
23:24 60.6 °F 58.3 °F 30 in Calm     92 % 0 in
23:29 60.4 °F 58.1 °F 30 in Calm     92 % 0 in
23:34 60.4 °F 58.5 °F 30 in NW 0.5 mph 2.5 mph 93 % 0 in
23:39 60.4 °F 58.5 °F 30 in NW 0.6 mph 2.5 mph 93 % 0 in
23:44 60.3 °F 58.3 °F 30 in Calm   0.9 mph 93 % 0 in
23:49 60.1 °F 57.9 °F 30.1 in Calm     93 % 0 in
23:54 60.1 °F 57.9 °F 30.1 in Calm     93 % 0 in
23:59 59.9 °F 57.9 °F 30.1 in North 0.1 mph 1.3 mph 93 % 0 in
Vremenska postaja Senovo
Podatki zbrani iz Weather Underground - 3 mb

Script developed by  Jim McMurry - jmcmurry@mwt.net Adapted for the template by  Wim van der Kuil - Leuven-Template.eu

Vremenski podatki so objavljeni na:

WeatherCloud

Weather Underground

AWEKAS

HAMweather, WeatherForYou, PWS Weather

MapView

Geostik

Slovenia weather network

Oprema, ki se uporablja:

Vremenski program
Cumulus

Cumulus